| time (UTC) | temp F | wind direction | speed MPH | gust MPH | rain 1hr in | rain 24hr in | rain mn in | humidity % | barometer mb |
| 20260509040816 | 59 | 217 | 0.0 | 1.0 | 0.00 | 0.00 | 0.00 | 89 | 1009.9 |
| 20260509040311 | 59 | 215 | 0.0 | 1.0 | 0.00 | 0.00 | 0.00 | 89 | 1010.0 |
| 20260509035827 | 60 | 215 | 0.0 | 0.0 | 0.00 | 0.00 | 0.00 | 89 | 1010.0 |
| 20260509035328 | 60 | 216 | 0.0 | 0.0 | 0.00 | 0.00 | 0.00 | 89 | 1010.0 |
| 20260509034825 | 61 | 216 | 0.0 | 0.0 | 0.00 | 0.00 | 0.00 | 89 | 1010.0 |
| 20260509034320 | 61 | 216 | 0.0 | 0.0 | 0.00 | 0.00 | 0.00 | 88 | 1010.2 |
| 20260509033836 | 61 | 237 | 0.0 | 0.0 | 0.00 | 0.00 | 0.00 | 87 | 1010.2 |
| 20260509033311 | 61 | 9 | 0.0 | 0.0 | 0.00 | 0.00 | 0.00 | 87 | 1010.0 |
| 20260509032827 | 61 | 9 | 0.0 | 0.0 | 0.00 | 0.00 | 0.00 | 86 | 1010.0 |
| 20260509032322 | 61 | 9 | 0.0 | 0.0 | 0.00 | 0.00 | 0.00 | 86 | 1010.0 |
| 20260509031839 | 62 | 9 | 0.0 | 1.0 | 0.00 | 0.00 | 0.00 | 85 | 1010.1 |
| 20260509031313 | 62 | 5 | 0.0 | 2.0 | 0.00 | 0.00 | 0.00 | 84 | 1010.2 |
| 20260509030813 | 62 | 27 | 0.0 | 2.0 | 0.00 | 0.00 | 0.00 | 83 | 1010.2 |
| 20260509030349 | 63 | 14 | 0.0 | 1.0 | 0.00 | 0.00 | 0.00 | 82 | 1010.2 |
| 20260509025824 | 63 | 339 | 0.0 | 1.0 | 0.00 | 0.00 | 0.00 | 81 | 1010.0 |
| 20260509025320 | 64 | 338 | 0.0 | 5.0 | 0.00 | 0.00 | 0.00 | 79 | 1009.8 |
| 20260509024816 | 64 | 343 | 0.0 | 6.0 | 0.00 | 0.00 | 0.00 | 77 | 1009.6 |
| 20260509024312 | 65 | 360 | 0.0 | 6.0 | 0.00 | 0.00 | 0.00 | 75 | 1009.5 |
| 20260509023827 | 65 | 334 | 0.0 | 3.0 | 0.00 | 0.00 | 0.00 | 72 | 1009.4 |
| 20260509023324 | 65 | 333 | 0.0 | 3.0 | 0.00 | 0.00 | 0.00 | 71 | 1009.4 |
| 20260509022824 | 65 | 329 | 0.0 | 3.0 | 0.00 | 0.00 | 0.00 | 71 | 1009.1 |
| 20260509022321 | 65 | 328 | 0.0 | 0.0 | 0.00 | 0.00 | 0.00 | 70 | 1009.0 |
| 20260509021818 | 65 | 250 | 0.0 | 0.0 | 0.00 | 0.00 | 0.00 | 68 | 1008.6 |
| 20260509021315 | 65 | 250 | 0.0 | 0.0 | 0.00 | 0.00 | 0.00 | 68 | 1008.2 |
| 20260509020812 | 65 | 249 | 0.0 | 0.0 | 0.00 | 0.00 | 0.00 | 67 | 1007.9 |
| 20260509020328 | 65 | 248 | 0.0 | 0.0 | 0.00 | 0.00 | 0.00 | 66 | 1007.6 |
| 20260509015843 | 65 | 248 | 0.0 | 0.0 | 0.00 | 0.00 | 0.00 | 66 | 1007.5 |
| 20260509015323 | 65 | 212 | 0.0 | 0.0 | 0.00 | 0.00 | 0.00 | 67 | 1007.4 |
| 20260509014818 | 65 | 212 | 0.0 | 0.0 | 0.00 | 0.00 | 0.00 | 67 | 1007.3 |
| 20260509014315 | 65 | 211 | 0.0 | 0.0 | 0.00 | 0.00 | 0.00 | 67 | 1007.2 |
| 20260509013831 | 65 | 212 | 0.0 | 0.0 | 0.00 | 0.00 | 0.00 | 67 | 1007.2 |
| 20260509013346 | 65 | 212 | 0.0 | 0.0 | 0.00 | 0.00 | 0.00 | 67 | 1007.0 |
| 20260509012821 | 65 | 214 | 0.0 | 0.0 | 0.00 | 0.00 | 0.00 | 67 | 1006.9 |
| 20260509012337 | 65 | 211 | 0.0 | 0.0 | 0.00 | 0.00 | 0.00 | 67 | 1006.7 |
| 20260509011832 | 65 | 159 | 0.0 | 0.0 | 0.00 | 0.00 | 0.00 | 67 | 1006.5 |
| 20260509011327 | 65 | 188 | 0.0 | 0.0 | 0.00 | 0.00 | 0.00 | 67 | 1006.7 |
| 20260509010821 | 65 | 140 | 0.0 | 0.0 | 0.00 | 0.00 | 0.00 | 67 | 1006.8 |
| 20260509010322 | 65 | 134 | 0.0 | 0.0 | 0.00 | 0.00 | 0.00 | 67 | 1006.8 |
| 20260509005818 | 65 | 141 | 0.0 | 1.0 | 0.00 | 0.00 | 0.00 | 67 | 1007.0 |
| 20260509005313 | 65 | 221 | 0.0 | 1.0 | 0.00 | 0.00 | 0.00 | 66 | 1007.0 |
| 20260509004828 | 66 | 141 | 0.0 | 1.0 | 0.00 | 0.00 | 0.00 | 66 | 1007.3 |
| 20260509004323 | 66 | 137 | 0.0 | 1.0 | 0.00 | 0.00 | 0.00 | 66 | 1007.3 |
| 20260509003841 | 66 | 84 | 0.0 | 1.0 | 0.00 | 0.00 | 0.00 | 66 | 1007.1 |
| 20260509003315 | 66 | 151 | 0.0 | 0.0 | 0.00 | 0.00 | 0.00 | 65 | 1007.0 |
| 20260509002811 | 67 | 267 | 0.0 | 0.0 | 0.00 | 0.00 | 0.00 | 64 | 1007.1 |
| 20260509002311 | 67 | 269 | 0.0 | 1.0 | 0.00 | 0.00 | 0.00 | 63 | 1007.3 |
| 20260509001827 | 67 | 269 | 0.0 | 1.0 | 0.00 | 0.00 | 0.00 | 63 | 1007.4 |
| 20260509001344 | 67 | 219 | 0.0 | 0.0 | 0.00 | 0.00 | 0.00 | 62 | 1007.4 |
| 20260509000820 | 67 | 254 | 0.0 | 0.0 | 0.00 | 0.00 | 0.00 | 62 | 1007.4 |
| 20260509000314 | 67 | 207 | 0.0 | 1.0 | 0.00 | 0.00 | 0.00 | 61 | 1007.3 |
| 20260508235809 | 68 | 237 | 0.0 | 3.0 | 0.00 | 0.00 | 0.00 | 60 | 1007.1 |
| 20260508235325 | 68 | 209 | 0.0 | 7.0 | 0.00 | 0.00 | 0.00 | 60 | 1007.0 |
| 20260508234821 | 69 | 217 | 0.0 | 7.0 | 0.00 | 0.00 | 0.00 | 58 | 1007.3 |
| 20260508234317 | 69 | 310 | 0.0 | 3.0 | 0.00 | 0.00 | 0.00 | 57 | 1007.4 |
| 20260508233817 | 70 | 169 | 0.0 | 2.0 | 0.00 | 0.00 | 0.00 | 58 | 1007.7 |
| 20260508233313 | 70 | 200 | 0.0 | 2.0 | 0.00 | 0.00 | 0.00 | 57 | 1008.1 |
| 20260508232810 | 70 | 216 | 0.0 | 1.0 | 0.00 | 0.00 | 0.00 | 56 | 1008.4 |
| 20260508232326 | 71 | 243 | 0.0 | 0.0 | 0.00 | 0.00 | 0.00 | 56 | 1008.4 |
| 20260508231821 | 71 | 233 | 0.0 | 0.0 | 0.00 | 0.00 | 0.00 | 54 | 1008.5 |
| 20260508231339 | 71 | 225 | 0.0 | 0.0 | 0.00 | 0.00 | 0.00 | 53 | 1008.4 |
| 20260508230814 | 72 | 271 | 0.0 | 0.0 | 0.00 | 0.00 | 0.00 | 53 | 1008.5 |
| 20260508230310 | 72 | 271 | 0.0 | 2.0 | 0.00 | 0.00 | 0.00 | 51 | 1008.7 |
| 20260508225844 | 72 | 268 | 0.0 | 3.0 | 0.00 | 0.00 | 0.00 | 51 | 1008.7 |
| 20260508225324 | 73 | 268 | 0.0 | 3.0 | 0.00 | 0.00 | 0.00 | 51 | 1008.7 |
| 20260508224821 | 73 | 259 | 0.0 | 1.0 | 0.00 | 0.00 | 0.00 | 48 | 1008.7 |
| 20260508224316 | 73 | 248 | 0.0 | 0.0 | 0.00 | 0.00 | 0.00 | 49 | 1008.7 |
| 20260508223812 | 74 | 244 | 0.0 | 2.0 | 0.00 | 0.00 | 0.00 | 48 | 1008.7 |
| 20260508223328 | 74 | 269 | 0.0 | 6.0 | 0.00 | 0.00 | 0.00 | 48 | 1008.7 |
| 20260508222826 | 74 | 223 | 0.0 | 6.0 | 0.00 | 0.00 | 0.00 | 47 | 1008.8 |
| 20260508222321 | 74 | 258 | 0.0 | 4.0 | 0.00 | 0.00 | 0.00 | 47 | 1008.7 |
| 20260508221822 | 74 | 248 | 0.0 | 2.0 | 0.00 | 0.00 | 0.00 | 46 | 1008.5 |
| 20260508221318 | 74 | 257 | 0.0 | 1.0 | 0.00 | 0.00 | 0.00 | 46 | 1008.3 |
| 20260508220815 | 75 | 223 | 0.0 | 1.0 | 0.00 | 0.00 | 0.00 | 47 | 1008.1 |
| 20260508220310 | 75 | 261 | 0.0 | 2.0 | 0.00 | 0.00 | 0.00 | 46 | 1008.1 |
| 20260508215824 | 75 | 209 | 0.0 | 9.0 | 0.00 | 0.00 | 0.00 | 47 | 1008.1 |
| 20260508215321 | 76 | 228 | 0.0 | 9.0 | 0.00 | 0.00 | 0.00 | 45 | 1008.0 |
| 20260508214817 | 76 | 219 | 1.0 | 7.0 | 0.00 | 0.00 | 0.00 | 44 | 1007.8 |
| 20260508214317 | 77 | 201 | 0.0 | 7.0 | 0.00 | 0.00 | 0.00 | 47 | 1007.7 |
| 20260508213813 | 77 | 168 | 0.0 | 7.0 | 0.00 | 0.00 | 0.00 | 46 | 1007.8 |
| 20260508213329 | 77 | 219 | 1.0 | 6.0 | 0.00 | 0.00 | 0.00 | 45 | 1007.8 |
| 20260508212847 | 77 | 192 | 0.0 | 6.0 | 0.00 | 0.00 | 0.00 | 46 | 1007.9 |
| 20260508212322 | 77 | 198 | 0.0 | 6.0 | 0.00 | 0.00 | 0.00 | 46 | 1007.9 |
| 20260508211816 | 77 | 129 | 0.0 | 14.0 | 0.00 | 0.00 | 0.00 | 45 | 1007.9 |
| 20260508211332 | 78 | 226 | 2.0 | 14.0 | 0.00 | 0.00 | 0.00 | 46 | 1008.1 |
| 20260508210828 | 77 | 156 | 0.0 | 4.0 | 0.00 | 0.00 | 0.00 | 47 | 1008.1 |
| 20260508210328 | 77 | 166 | 0.0 | 4.0 | 0.00 | 0.00 | 0.00 | 47 | 1008.2 |
| 20260508205824 | 77 | 180 | 0.0 | 5.0 | 0.00 | 0.00 | 0.00 | 45 | 1008.3 |
| 20260508205320 | 77 | 130 | 0.0 | 6.0 | 0.00 | 0.00 | 0.00 | 46 | 1008.4 |
| 20260508204835 | 77 | 254 | 0.0 | 6.0 | 0.00 | 0.00 | 0.00 | 46 | 1008.5 |
| 20260508204312 | 77 | 188 | 0.0 | 3.0 | 0.00 | 0.00 | 0.00 | 44 | 1008.5 |
| 20260508203828 | 77 | 241 | 0.0 | 7.0 | 0.00 | 0.00 | 0.00 | 46 | 1008.6 |
| 20260508203324 | 77 | 125 | 0.0 | 7.0 | 0.00 | 0.00 | 0.00 | 46 | 1008.7 |
| 20260508202818 | 77 | 234 | 0.0 | 7.0 | 0.00 | 0.00 | 0.00 | 46 | 1008.9 |
| 20260508202319 | 76 | 240 | 0.0 | 8.0 | 0.00 | 0.00 | 0.00 | 46 | 1009.0 |
| 20260508201814 | 76 | 254 | 1.0 | 9.0 | 0.00 | 0.00 | 0.00 | 47 | 1009.1 |
| 20260508201310 | 76 | 221 | 1.0 | 9.0 | 0.00 | 0.00 | 0.00 | 46 | 1009.2 |
| 20260508200826 | 76 | 205 | 1.0 | 10.0 | 0.00 | 0.00 | 0.00 | 48 | 1009.3 |
| 20260508200321 | 76 | 248 | 0.0 | 8.0 | 0.00 | 0.00 | 0.00 | 49 | 1009.3 |
| 20260508195818 | 76 | 223 | 0.0 | 6.0 | 0.00 | 0.00 | 0.00 | 49 | 1009.4 |
| 20260508195314 | 75 | 207 | 0.0 | 2.0 | 0.00 | 0.00 | 0.00 | 54 | 1009.6 |
| 20260508194850 | 75 | 231 | 0.0 | 7.0 | 0.00 | 0.00 | 0.00 | 52 | 1009.7 |
| 20260508194329 | 75 | 202 | 0.0 | 4.0 | 0.00 | 0.00 | 0.00 | 51 | 1009.9 |
| 20260508193825 | 75 | 112 | 0.0 | 4.0 | 0.00 | 0.00 | 0.00 | 52 | 1009.9 |
| 20260508193321 | 75 | 227 | 0.0 | 5.0 | 0.00 | 0.00 | 0.00 | 51 | 1010.0 |
| 20260508192817 | 75 | 131 | 0.0 | 8.0 | 0.00 | 0.00 | 0.00 | 52 | 1010.0 |
| 20260508192313 | 75 | 115 | 0.0 | 4.0 | 0.00 | 0.00 | 0.00 | 53 | 1010.0 |
| 20260508191809 | 75 | 197 | 0.0 | 8.0 | 0.00 | 0.00 | 0.00 | 53 | 1010.1 |
| 20260508191325 | 75 | 181 | 0.0 | 1.0 | 0.00 | 0.00 | 0.00 | 53 | 1010.2 |
| 20260508190825 | 75 | 157 | 0.0 | 1.0 | 0.00 | 0.00 | 0.00 | 56 | 1010.2 |
| 20260508190321 | 74 | 149 | 0.0 | 4.0 | 0.00 | 0.00 | 0.00 | 61 | 1010.3 |
| 20260508185816 | 73 | 240 | 0.0 | 3.0 | 0.00 | 0.00 | 0.00 | 58 | 1010.4 |
| 20260508185311 | 73 | 227 | 0.0 | 1.0 | 0.00 | 0.00 | 0.00 | 57 | 1010.4 |
| 20260508184827 | 72 | 215 | 0.0 | 1.0 | 0.00 | 0.00 | 0.00 | 59 | 1010.5 |
| 20260508184324 | 72 | 251 | 0.0 | 1.0 | 0.00 | 0.00 | 0.00 | 58 | 1010.7 |
| 20260508183821 | 72 | 212 | 0.0 | 6.0 | 0.00 | 0.00 | 0.00 | 58 | 1010.7 |
| 20260508183337 | 72 | 209 | 0.0 | 6.0 | 0.00 | 0.00 | 0.00 | 59 | 1010.8 |
| 20260508182816 | 72 | 209 | 0.0 | 1.0 | 0.00 | 0.00 | 0.00 | 58 | 1010.8 |
| 20260508182312 | 72 | 203 | 0.0 | 5.0 | 0.00 | 0.00 | 0.00 | 57 | 1010.9 |
| 20260508181827 | 72 | 234 | 0.0 | 9.0 | 0.00 | 0.00 | 0.00 | 53 | 1010.9 |
| 20260508181322 | 73 | 241 | 0.0 | 9.0 | 0.00 | 0.00 | 0.00 | 54 | 1011.0 |
| 20260508180839 | 72 | 209 | 0.0 | 5.0 | 0.00 | 0.00 | 0.00 | 53 | 1011.1 |
| 20260508180314 | 72 | 214 | 1.0 | 4.0 | 0.00 | 0.00 | 0.00 | 55 | 1011.2 |
| 20260508175829 | 72 | 201 | 0.0 | 5.0 | 0.00 | 0.00 | 0.00 | 53 | 1011.2 |
| 20260508175345 | 72 | 142 | 0.0 | 8.0 | 0.00 | 0.00 | 0.00 | 54 | 1011.3 |
| 20260508174841 | 73 | 209 | 1.0 | 8.0 | 0.00 | 0.00 | 0.00 | 54 | 1011.5 |
| 20260508174320 | 73 | 212 | 0.0 | 5.0 | 0.00 | 0.00 | 0.00 | 59 | 1011.6 |
| 20260508173816 | 72 | 210 | 0.0 | 2.0 | 0.00 | 0.00 | 0.00 | 57 | 1011.6 |
| 20260508173312 | 72 | 270 | 0.0 | 3.0 | 0.00 | 0.00 | 0.00 | 58 | 1011.7 |
| 20260508172849 | 72 | 243 | 0.0 | 9.0 | 0.00 | 0.00 | 0.00 | 56 | 1011.8 |
| 20260508172323 | 72 | 206 | 0.0 | 9.0 | 0.00 | 0.00 | 0.00 | 55 | 1011.9 |
| 20260508171838 | 72 | 249 | 1.0 | 8.0 | 0.00 | 0.00 | 0.00 | 56 | 1011.9 |
| 20260508171313 | 72 | 147 | 1.0 | 8.0 | 0.00 | 0.00 | 0.00 | 55 | 1012.0 |
| 20260508170809 | 72 | 222 | 0.0 | 1.0 | 0.00 | 0.00 | 0.00 | 61 | 1012.0 |
| 20260508170308 | 71 | 221 | 0.0 | 1.0 | 0.00 | 0.00 | 0.00 | 61 | 1012.1 |
| 20260508165825 | 71 | 269 | 0.0 | 1.0 | 0.00 | 0.00 | 0.00 | 62 | 1012.1 |
| 20260508165321 | 71 | 220 | 0.0 | 1.0 | 0.00 | 0.00 | 0.00 | 61 | 1012.2 |
| 20260508164816 | 71 | 254 | 0.0 | 1.0 | 0.00 | 0.00 | 0.00 | 60 | 1012.3 |
| 20260508164313 | 70 | 244 | 0.0 | 10.0 | 0.00 | 0.00 | 0.00 | 62 | 1012.5 |
| 20260508163809 | 70 | 271 | 1.0 | 7.0 | 0.00 | 0.00 | 0.00 | 61 | 1012.5 |
| 20260508163325 | 69 | 205 | 0.0 | 3.0 | 0.00 | 0.00 | 0.00 | 62 | 1012.5 |
| 20260508162824 | 70 | 221 | 0.0 | 9.0 | 0.00 | 0.00 | 0.00 | 63 | 1012.6 |
| 20260508162320 | 69 | 265 | 1.0 | 9.0 | 0.00 | 0.00 | 0.00 | 60 | 1012.6 |
| 20260508161816 | 69 | 249 | 1.0 | 10.0 | 0.00 | 0.00 | 0.00 | 63 | 1012.7 |
| 20260508161312 | 68 | 221 | 1.0 | 10.0 | 0.00 | 0.00 | 0.00 | 62 | 1012.7 |
| 20260508160829 | 68 | 243 | 1.0 | 7.0 | 0.00 | 0.00 | 0.00 | 63 | 1012.7 |
| 20260508160325 | 68 | 225 | 0.0 | 8.0 | 0.00 | 0.00 | 0.00 | 62 | 1012.8 |
| 20260508155820 | 68 | 236 | 0.0 | 14.0 | 0.00 | 0.00 | 0.00 | 62 | 1012.8 |
| 20260508155316 | 68 | 232 | 2.0 | 14.0 | 0.00 | 0.00 | 0.00 | 63 | 1012.9 |
| 20260508154837 | 67 | 264 | 0.0 | 9.0 | 0.00 | 0.00 | 0.00 | 63 | 1012.9 |
| 20260508154333 | 67 | 258 | 0.0 | 12.0 | 0.00 | 0.00 | 0.00 | 62 | 1013.1 |
| 20260508153827 | 67 | 261 | 3.0 | 12.0 | 0.00 | 0.00 | 0.00 | 62 | 1013.1 |
| 20260508153322 | 66 | 238 | 1.0 | 8.0 | 0.00 | 0.00 | 0.00 | 64 | 1013.2 |
| 20260508152818 | 66 | 188 | 0.0 | 1.0 | 0.00 | 0.00 | 0.00 | 63 | 1013.3 |
| 20260508152315 | 66 | 184 | 0.0 | 10.0 | 0.00 | 0.00 | 0.00 | 63 | 1013.4 |
| 20260508151811 | 65 | 223 | 0.0 | 11.0 | 0.00 | 0.00 | 0.00 | 64 | 1013.2 |
| 20260508151327 | 65 | 247 | 0.0 | 11.0 | 0.00 | 0.00 | 0.00 | 63 | 1013.3 |
| 20260508150823 | 65 | 233 | 1.0 | 12.0 | 0.00 | 0.00 | 0.00 | 64 | 1013.3 |
| 20260508150323 | 64 | 232 | 0.0 | 12.0 | 0.00 | 0.00 | 0.00 | 64 | 1013.3 |
| 20260508145818 | 64 | 233 | 0.0 | 5.0 | 0.00 | 0.00 | 0.00 | 65 | 1013.3 |
| 20260508145314 | 64 | 207 | 0.0 | 8.0 | 0.00 | 0.00 | 0.00 | 65 | 1013.4 |
| 20260508144810 | 64 | 252 | 1.0 | 14.0 | 0.00 | 0.00 | 0.00 | 64 | 1013.5 |
| 20260508144348 | 64 | 216 | 2.0 | 12.0 | 0.00 | 0.00 | 0.00 | 64 | 1013.5 |
| 20260508143823 | 63 | 265 | 1.0 | 11.0 | 0.00 | 0.00 | 0.00 | 64 | 1013.5 |
| 20260508143318 | 64 | 210 | 1.0 | 8.0 | 0.00 | 0.00 | 0.00 | 65 | 1013.7 |
| 20260508142818 | 63 | 181 | 0.0 | 8.0 | 0.00 | 0.00 | 0.00 | 67 | 1013.7 |
| 20260508142314 | 63 | 217 | 0.0 | 0.0 | 0.00 | 0.00 | 0.00 | 68 | 1013.7 |
| 20260508141810 | 62 | 229 | 0.0 | 10.0 | 0.00 | 0.00 | 0.00 | 69 | 1013.7 |
| 20260508141346 | 62 | 237 | 0.0 | 10.0 | 0.00 | 0.00 | 0.00 | 67 | 1013.7 |
| 20260508140821 | 61 | 202 | 1.0 | 10.0 | 0.00 | 0.00 | 0.00 | 69 | 1013.7 |
| 20260508140317 | 61 | 195 | 0.0 | 9.0 | 0.00 | 0.00 | 0.00 | 68 | 1013.7 |
| 20260508135813 | 61 | 234 | 0.0 | 10.0 | 0.00 | 0.00 | 0.00 | 69 | 1013.8 |
| 20260508135309 | 60 | 205 | 0.0 | 3.0 | 0.00 | 0.00 | 0.00 | 68 | 1013.8 |
| 20260508134810 | 60 | 164 | 0.0 | 5.0 | 0.00 | 0.00 | 0.00 | 69 | 1013.8 |
| 20260508134326 | 60 | 201 | 0.0 | 5.0 | 0.00 | 0.00 | 0.00 | 69 | 1013.8 |
| 20260508133822 | 59 | 206 | 0.0 | 14.0 | 0.00 | 0.00 | 0.00 | 69 | 1013.8 |
| 20260508133317 | 59 | 209 | 2.0 | 14.0 | 0.00 | 0.00 | 0.00 | 69 | 1013.8 |
| 20260508132812 | 58 | 220 | 0.0 | 1.0 | 0.00 | 0.00 | 0.00 | 70 | 1013.7 |
| 20260508132328 | 58 | 138 | 0.0 | 1.0 | 0.00 | 0.00 | 0.00 | 71 | 1013.7 |
| 20260508131824 | 58 | 231 | 0.0 | 3.0 | 0.00 | 0.00 | 0.00 | 71 | 1013.8 |
| 20260508131340 | 57 | 186 | 0.0 | 3.0 | 0.00 | 0.00 | 0.00 | 72 | 1013.7 |
| 20260508130820 | 57 | 229 | 0.0 | 10.0 | 0.00 | 0.00 | 0.00 | 72 | 1013.7 |
| 20260508130316 | 57 | 213 | 0.0 | 3.0 | 0.00 | 0.00 | 0.00 | 72 | 1013.7 |
| 20260508125811 | 56 | 202 | 0.0 | 3.0 | 0.00 | 0.00 | 0.00 | 73 | 1013.8 |
| 20260508125347 | 56 | 206 | 0.0 | 3.0 | 0.00 | 0.00 | 0.00 | 74 | 1013.6 |
| 20260508124823 | 55 | 234 | 0.0 | 1.0 | 0.00 | 0.00 | 0.00 | 74 | 1013.5 |
| 20260508124318 | 55 | 199 | 0.0 | 1.0 | 0.00 | 0.00 | 0.00 | 74 | 1013.5 |
| 20260508123815 | 55 | 209 | 0.0 | 2.0 | 0.00 | 0.00 | 0.00 | 74 | 1013.4 |
| 20260508123315 | 55 | 234 | 0.0 | 4.0 | 0.00 | 0.00 | 0.00 | 75 | 1013.5 |
| 20260508122831 | 54 | 211 | 0.0 | 4.0 | 0.00 | 0.00 | 0.00 | 76 | 1013.4 |
| 20260508122326 | 54 | 161 | 0.0 | 1.0 | 0.00 | 0.00 | 0.00 | 76 | 1013.3 |
| 20260508121822 | 53 | 209 | 0.0 | 1.0 | 0.00 | 0.00 | 0.00 | 76 | 1013.3 |
| 20260508121319 | 53 | 163 | 0.0 | 1.0 | 0.00 | 0.00 | 0.00 | 77 | 1013.4 |
| 20260508120816 | 53 | 209 | 0.0 | 1.0 | 0.00 | 0.00 | 0.00 | 77 | 1013.3 |
| 20260508120332 | 52 | 255 | 0.0 | 2.0 | 0.00 | 0.00 | 0.00 | 77 | 1013.3 |
| 20260508115826 | 52 | 233 | 0.0 | 2.0 | 0.00 | 0.00 | 0.00 | 78 | 1013.3 |
| 20260508115322 | 52 | 173 | 0.0 | 0.0 | 0.00 | 0.00 | 0.00 | 78 | 1013.3 |
| 20260508114822 | 52 | 140 | 0.0 | 0.0 | 0.00 | 0.00 | 0.00 | 78 | 1013.3 |
| 20260508114317 | 51 | 210 | 0.0 | 0.0 | 0.00 | 0.00 | 0.00 | 78 | 1013.4 |
| 20260508113815 | 51 | 210 | 0.0 | 0.0 | 0.00 | 0.00 | 0.00 | 78 | 1013.3 |
| 20260508113311 | 51 | 210 | 0.0 | 0.0 | 0.00 | 0.00 | 0.00 | 78 | 1013.3 |
| 20260508112827 | 51 | 210 | 0.0 | 0.0 | 0.00 | 0.00 | 0.00 | 78 | 1013.2 |
| 20260508112322 | 51 | 209 | 0.0 | 0.0 | 0.00 | 0.00 | 0.00 | 79 | 1013.2 |
| 20260508111819 | 51 | 190 | 0.0 | 1.0 | 0.00 | 0.00 | 0.00 | 79 | 1013.1 |
| 20260508111318 | 51 | 205 | 0.0 | 3.0 | 0.00 | 0.00 | 0.00 | 79 | 1013.2 |
| 20260508110814 | 51 | 175 | 0.0 | 3.0 | 0.00 | 0.00 | 0.00 | 79 | 1013.1 |
| 20260508110310 | 51 | 236 | 0.0 | 1.0 | 0.00 | 0.00 | 0.00 | 79 | 1013.0 |
| 20260508105845 | 51 | 193 | 0.0 | 0.0 | 0.00 | 0.00 | 0.00 | 79 | 1013.0 |
| 20260508105321 | 51 | 192 | 0.0 | 0.0 | 0.00 | 0.00 | 0.00 | 79 | 1013.0 |
| 20260508104814 | 51 | 194 | 0.0 | 0.0 | 0.00 | 0.00 | 0.00 | 79 | 1013.0 |
| 20260508104311 | 50 | 188 | 0.0 | 0.0 | 0.00 | 0.00 | 0.00 | 80 | 1013.0 |
| 20260508103810 | 50 | 178 | 0.0 | 0.0 | 0.00 | 0.00 | 0.00 | 80 | 1013.0 |
| 20260508103327 | 50 | 186 | 0.0 | 0.0 | 0.00 | 0.00 | 0.00 | 81 | 1013.0 |
| 20260508102844 | 49 | 196 | 0.0 | 0.0 | 0.00 | 0.00 | 0.00 | 82 | 1013.0 |
| 20260508102318 | 49 | 225 | 0.0 | 0.0 | 0.00 | 0.00 | 0.00 | 83 | 1013.0 |
| 20260508101814 | 48 | 225 | 0.0 | 0.0 | 0.00 | 0.00 | 0.00 | 84 | 1013.0 |
| 20260508101311 | 48 | 225 | 0.0 | 0.0 | 0.00 | 0.00 | 0.00 | 85 | 1013.0 |
| 20260508100827 | 48 | 225 | 0.0 | 0.0 | 0.00 | 0.00 | 0.00 | 85 | 1013.1 |
| 20260508100323 | 47 | 225 | 0.0 | 0.0 | 0.00 | 0.00 | 0.00 | 86 | 1013.1 |
| 20260508095822 | 47 | 225 | 0.0 | 0.0 | 0.00 | 0.00 | 0.00 | 86 | 1013.2 |
| 20260508095318 | 47 | 225 | 0.0 | 0.0 | 0.00 | 0.00 | 0.00 | 86 | 1013.1 |
| 20260508094814 | 47 | 225 | 0.0 | 0.0 | 0.00 | 0.00 | 0.00 | 85 | 1013.1 |
| 20260508094350 | 47 | 225 | 0.0 | 0.0 | 0.00 | 0.00 | 0.00 | 85 | 1013.1 |
| 20260508093825 | 48 | 225 | 0.0 | 0.0 | 0.00 | 0.00 | 0.00 | 84 | 1013.1 |
| 20260508093320 | 48 | 225 | 0.0 | 0.0 | 0.00 | 0.00 | 0.00 | 83 | 1013.1 |
| 20260508092817 | 48 | 225 | 0.0 | 0.0 | 0.00 | 0.00 | 0.00 | 84 | 1013.1 |
| 20260508092314 | 48 | 225 | 0.0 | 0.0 | 0.00 | 0.00 | 0.00 | 84 | 1013.1 |
| 20260508091812 | 48 | 225 | 0.0 | 0.0 | 0.00 | 0.00 | 0.00 | 85 | 1013.1 |
| 20260508091328 | 48 | 225 | 0.0 | 0.0 | 0.00 | 0.00 | 0.00 | 84 | 1013.0 |
| 20260508090824 | 48 | 225 | 0.0 | 0.0 | 0.00 | 0.00 | 0.00 | 84 | 1013.1 |
| 20260508090320 | 48 | 225 | 0.0 | 0.0 | 0.00 | 0.00 | 0.00 | 83 | 1013.2 |
| 20260508085815 | 48 | 225 | 0.0 | 0.0 | 0.00 | 0.00 | 0.00 | 82 | 1013.1 |
| 20260508085331 | 49 | 225 | 0.0 | 0.0 | 0.00 | 0.00 | 0.00 | 82 | 1013.2 |
| 20260508084846 | 49 | 225 | 0.0 | 0.0 | 0.00 | 0.00 | 0.00 | 82 | 1013.3 |
| 20260508084342 | 49 | 225 | 0.0 | 0.0 | 0.00 | 0.00 | 0.00 | 81 | 1013.2 |
| 20260508083817 | 49 | 225 | 0.0 | 0.0 | 0.00 | 0.00 | 0.00 | 81 | 1013.3 |
| 20260508083319 | 50 | 225 | 0.0 | 0.0 | 0.00 | 0.00 | 0.00 | 80 | 1013.3 |
| 20260508082834 | 50 | 225 | 0.0 | 0.0 | 0.00 | 0.00 | 0.00 | 80 | 1013.3 |
| 20260508082309 | 50 | 225 | 0.0 | 0.0 | 0.00 | 0.00 | 0.00 | 80 | 1013.3 |
| 20260508081826 | 50 | 225 | 0.0 | 0.0 | 0.00 | 0.00 | 0.00 | 80 | 1013.4 |
| 20260508081323 | 50 | 225 | 0.0 | 0.0 | 0.00 | 0.00 | 0.00 | 80 | 1013.4 |
| 20260508080820 | 50 | 225 | 0.0 | 0.0 | 0.00 | 0.00 | 0.00 | 80 | 1013.4 |
| 20260508080315 | 50 | 225 | 0.0 | 0.0 | 0.00 | 0.00 | 0.00 | 80 | 1013.5 |
| 20260508075809 | 50 | 230 | 0.0 | 0.0 | 0.00 | 0.00 | 0.00 | 80 | 1013.4 |
| 20260508075345 | 50 | 186 | 0.0 | 0.0 | 0.00 | 0.00 | 0.00 | 81 | 1013.4 |
| 20260508074824 | 50 | 198 | 0.0 | 0.0 | 0.00 | 0.00 | 0.00 | 81 | 1013.5 |
| 20260508074319 | 50 | 198 | 0.0 | 0.0 | 0.00 | 0.00 | 0.00 | 82 | 1013.6 |
| 20260508073816 | 49 | 198 | 0.0 | 0.0 | 0.00 | 0.00 | 0.00 | 83 | 1013.6 |
| 20260508073313 | 49 | 205 | 0.0 | 0.0 | 0.00 | 0.00 | 0.00 | 85 | 1013.7 |
| 20260508072829 | 48 | 228 | 0.0 | 0.0 | 0.00 | 0.00 | 0.00 | 88 | 1013.7 |
| 20260508072345 | 48 | 229 | 0.0 | 0.0 | 0.00 | 0.00 | 0.00 | 90 | 1013.9 |
| 20260508071821 | 47 | 229 | 0.0 | 0.0 | 0.00 | 0.00 | 0.00 | 92 | 1013.9 |
| 20260508071337 | 46 | 229 | 0.0 | 0.0 | 0.00 | 0.00 | 0.00 | 92 | 1014.0 |
| 20260508070812 | 45 | 229 | 0.0 | 0.0 | 0.00 | 0.00 | 0.00 | 92 | 1014.0 |
| 20260508070332 | 44 | 229 | 0.0 | 0.0 | 0.00 | 0.00 | 0.00 | 91 | 1014.0 |
| 20260508065826 | 44 | 229 | 0.0 | 0.0 | 0.00 | 0.00 | 0.00 | 91 | 1014.1 |
| 20260508065322 | 44 | 229 | 0.0 | 0.0 | 0.00 | 0.00 | 0.00 | 91 | 1014.1 |
| 20260508064818 | 44 | 229 | 0.0 | 0.0 | 0.00 | 0.00 | 0.00 | 91 | 1014.1 |
| 20260508064315 | 44 | 229 | 0.0 | 0.0 | 0.00 | 0.00 | 0.00 | 91 | 1014.1 |
| 20260508063810 | 44 | 229 | 0.0 | 0.0 | 0.00 | 0.00 | 0.00 | 91 | 1014.1 |
| 20260508063347 | 44 | 229 | 0.0 | 0.0 | 0.00 | 0.00 | 0.00 | 91 | 1014.2 |
| 20260508062821 | 44 | 229 | 0.0 | 0.0 | 0.00 | 0.00 | 0.00 | 91 | 1014.2 |
| 20260508062316 | 44 | 229 | 0.0 | 0.0 | 0.00 | 0.00 | 0.00 | 91 | 1014.3 |
| 20260508061817 | 44 | 229 | 0.0 | 0.0 | 0.00 | 0.00 | 0.00 | 91 | 1014.3 |
| 20260508061312 | 44 | 229 | 0.0 | 0.0 | 0.00 | 0.00 | 0.00 | 91 | 1014.3 |
| 20260508060827 | 44 | 229 | 0.0 | 0.0 | 0.00 | 0.00 | 0.00 | 90 | 1014.3 |
| 20260508060323 | 44 | 229 | 0.0 | 0.0 | 0.00 | 0.00 | 0.00 | 90 | 1014.3 |
| 20260508055820 | 44 | 229 | 0.0 | 0.0 | 0.00 | 0.00 | 0.00 | 91 | 1014.3 |
| 20260508055315 | 44 | 229 | 0.0 | 0.0 | 0.00 | 0.00 | 0.00 | 90 | 1014.3 |
| 20260508054811 | 44 | 229 | 0.0 | 0.0 | 0.00 | 0.00 | 0.00 | 90 | 1014.4 |
| 20260508054311 | 44 | 229 | 0.0 | 0.0 | 0.00 | 0.00 | 0.00 | 90 | 1014.4 |
| 20260508053827 | 44 | 229 | 0.0 | 0.0 | 0.00 | 0.00 | 0.00 | 89 | 1014.3 |
| 20260508053324 | 44 | 229 | 0.0 | 0.0 | 0.00 | 0.00 | 0.00 | 89 | 1014.4 |
| 20260508052820 | 45 | 229 | 0.0 | 0.0 | 0.00 | 0.00 | 0.00 | 90 | 1014.4 |
| 20260508052316 | 45 | 229 | 0.0 | 0.0 | 0.00 | 0.00 | 0.00 | 90 | 1014.4 |
| 20260508051812 | 45 | 229 | 0.0 | 0.0 | 0.00 | 0.00 | 0.00 | 90 | 1014.4 |
| 20260508051328 | 45 | 229 | 0.0 | 0.0 | 0.00 | 0.00 | 0.00 | 90 | 1014.5 |
| 20260508050824 | 45 | 229 | 0.0 | 0.0 | 0.00 | 0.00 | 0.00 | 90 | 1014.6 |
| 20260508050324 | 44 | 229 | 0.0 | 0.0 | 0.00 | 0.00 | 0.00 | 89 | 1014.6 |
| 20260508045819 | 45 | 229 | 0.0 | 0.0 | 0.00 | 0.00 | 0.00 | 89 | 1014.6 |
| 20260508045314 | 45 | 229 | 0.0 | 0.0 | 0.00 | 0.00 | 0.00 | 89 | 1014.7 |
| 20260508044811 | 45 | 229 | 0.0 | 0.0 | 0.00 | 0.00 | 0.00 | 89 | 1014.7 |
| 20260508044349 | 45 | 229 | 0.0 | 0.0 | 0.00 | 0.00 | 0.00 | 89 | 1014.7 |
| 20260508043824 | 45 | 229 | 0.0 | 0.0 | 0.00 | 0.00 | 0.00 | 89 | 1014.8 |
| 20260508043321 | 45 | 229 | 0.0 | 0.0 | 0.00 | 0.00 | 0.00 | 88 | 1014.9 |
| 20260508042820 | 45 | 229 | 0.0 | 0.0 | 0.00 | 0.00 | 0.00 | 88 | 1014.9 |
| 20260508042316 | 46 | 229 | 0.0 | 0.0 | 0.00 | 0.00 | 0.00 | 88 | 1015.0 |
| 20260508041813 | 46 | 229 | 0.0 | 0.0 | 0.00 | 0.00 | 0.00 | 87 | 1015.1 |
| 20260508041329 | 46 | 229 | 0.0 | 0.0 | 0.00 | 0.00 | 0.00 | 87 | 1015.1 |